Overview Statistics Trail Chart Weather Telemetry Raw packets
 

This is the latest recevied weather packets stored in our database for station/object W2SRH. If no packets are shown the sender has not sent any weather packets the latest 10 day(s).

<< 72 73 74 75 76 77 78 >>
Time Temp. Humidity Pressure Rain* Wind** Luminosity Snow
1787783344 27.22° C 49% 1008.6 hPa 0 mm 0.45 m/s, 324° - -
1787782746 27.78° C 47% 1008.6 hPa 0 mm 0 m/s - -
1787782144 27.78° C 49% 1008.6 hPa 0 mm 0 m/s - -
1787782035 27.22° C 49% 1008.6 hPa 0 mm 0 m/s - -
1787782024 27.78° C 48% 1008.7 hPa 0 mm 0 m/s - -
1787781544 27.22° C 50% 1008.6 hPa 0 mm 0 m/s - -
1787780944 27.22° C 49% 1008.6 hPa 0 mm 0 m/s - -
1787780344 27.78° C 48% 1008.7 hPa 0 mm 0 m/s - -
1787779746 28.33° C 46% 1008.6 hPa 0 mm 0 m/s - -
1787779144 28.33° C 47% 1008.7 hPa 0 mm 0 m/s - -
1787778548 28.33° C 46% 1008.5 hPa 0 mm 0.45 m/s, 151° - -
1787778189 29.44° C 44% 1008.7 hPa 0 mm 0.89 m/s, 167° - -
1787777945 28.33° C 46% 1008.6 hPa 0 mm 0.45 m/s, 124° - -
1787777346 28.33° C 44% 1008.8 hPa 0 mm 0 m/s - -
1787776745 29.44° C 44% 1008.7 hPa 0 mm 0.89 m/s, 167° - -
1787776148 28.89° C 44% 1008.8 hPa 0 mm 0.45 m/s, 294° - -
1787775545 28.33° C 44% 1008.9 hPa 0 mm 0 m/s - -
1787774948 28.33° C 45% 1009.1 hPa 0 mm 0 m/s - -
1787774349 27.78° C 48% 1009.3 hPa 0 mm 0 m/s - -
1787774346 27.22° C 47% 1009.1 hPa 0 mm 0.45 m/s, 139° - -
1787774340 27.78° C 46% 1009.2 hPa 0 mm 0 m/s - -
1787773744 27.22° C 48% 1009.2 hPa 0 mm 0.45 m/s, 156° - -
1787773144 27.78° C 48% 1009.3 hPa 0 mm 0 m/s - -
1787772545 27.78° C 46% 1009.2 hPa 0 mm 0 m/s - -
1787772435 28.33° C 45% 1009.2 hPa 0 mm 0.45 m/s, 232° - -

* Rain latest hour (hover to see other rain measurements)
** Current wind speed in m/s (hover to see current wind gust speed)